Time,TemperatureF,DewpointF,PressureIn,WindDirection,WindDirectionDegrees,WindSpeedMPH,WindSpeedGustMPH,Humidity,HourlyPrecipIn,Conditions,Clouds,dailyrainin,SoftwareType,DateUTC
2013-08-03 00:02:00,64.7,60.4,29.95,West,269,1.0,1.0,86,0.00,,,0.00,Wunderground v.1.15,2013-08-03 07:02:00,
2013-08-03 00:12:00,64.7,60.4,29.94,West,269,0.0,0.0,86,0.00,,,0.00,Wunderground v.1.15,2013-08-03 07:12:00,
2013-08-03 00:22:00,64.7,60.7,29.94,West,269,0.0,0.0,87,0.00,,,0.00,Wunderground v.1.15,2013-08-03 07:22:00,
2013-08-03 00:27:00,64.7,60.7,29.94,West,269,1.0,2.0,87,0.00,,,0.00,Wunderground v.1.15,2013-08-03 07:27:00,
2013-08-03 00:32:00,64.7,60.7,29.94,West,269,1.0,2.0,87,0.00,,,0.00,Wunderground v.1.15,2013-08-03 07:32:00,
2013-08-03 00:37:00,64.8,60.5,29.94,West,269,2.0,2.0,86,0.00,,,0.00,Wunderground v.1.15,2013-08-03 07:37:00,
2013-08-03 00:42:00,64.8,60.8,29.94,West,269,1.0,1.0,87,0.00,,,0.00,Wunderground v.1.15,2013-08-03 07:42:00,
2013-08-03 00:52:00,64.9,60.6,29.94,West,269,1.0,1.0,86,0.00,,,0.00,Wunderground v.1.15,2013-08-03 07:52:00,
2013-08-03 01:02:00,64.9,60.6,29.94,West,269,1.0,1.0,86,0.00,,,0.00,Wunderground v.1.15,2013-08-03 08:02:00,
2013-08-03 01:07:00,64.9,60.6,29.94,West,269,1.0,1.0,86,0.00,,,0.00,Wunderground v.1.15,2013-08-03 08:07:00,
2013-08-03 01:12:00,65.0,60.7,29.94,West,269,1.0,1.0,86,0.00,,,0.00,Wunderground v.1.15,2013-08-03 08:12:00,
2013-08-03 01:22:00,65.0,60.7,29.94,West,269,0.0,1.0,86,0.00,,,0.00,Wunderground v.1.15,2013-08-03 08:22:00,
2013-08-03 01:32:00,65.2,60.9,29.94,West,265,1.0,2.0,86,0.00,,,0.00,Wunderground v.1.15,2013-08-03 08:32:00,
2013-08-03 01:42:00,65.3,60.7,29.94,West,265,1.0,1.0,85,0.00,,,0.00,Wunderground v.1.15,2013-08-03 08:42:00,
2013-08-03 01:47:00,65.3,60.7,29.94,West,265,0.0,1.0,85,0.00,,,0.00,Wunderground v.1.15,2013-08-03 08:47:00,
2013-08-03 01:52:00,65.3,60.7,29.94,West,265,0.0,0.0,85,0.00,,,0.00,Wunderground v.1.15,2013-08-03 08:52:00,
2013-08-03 02:02:00,65.3,60.7,29.94,West,265,0.0,1.0,85,0.00,,,0.00,Wunderground v.1.15,2013-08-03 09:02:00,
2013-08-03 02:07:00,65.4,60.8,29.94,NE,46,0.0,2.0,85,0.00,,,0.00,Wunderground v.1.15,2013-08-03 09:07:00,
2013-08-03 02:12:00,65.4,60.8,29.93,NE,45,0.0,0.0,85,0.00,,,0.00,Wunderground v.1.15,2013-08-03 09:12:00,
2013-08-03 02:17:00,65.4,60.8,29.93,East,85,0.0,1.0,85,0.00,,,0.00,Wunderground v.1.15,2013-08-03 09:17:00,
2013-08-03 02:22:00,65.4,60.8,29.93,SSE,163,1.0,3.0,85,0.00,,,0.00,Wunderground v.1.15,2013-08-03 09:22:00,
2013-08-03 02:27:00,65.4,60.4,29.93,SSE,162,1.0,3.0,84,0.00,,,0.00,Wunderground v.1.15,2013-08-03 09:27:00,
2013-08-03 02:37:00,65.5,60.5,29.93,ESE,115,2.0,2.0,84,0.00,,,0.00,Wunderground v.1.15,2013-08-03 09:37:00,
2013-08-03 02:47:00,65.5,60.5,29.93,ESE,105,1.0,2.0,84,0.00,,,0.00,Wunderground v.1.15,2013-08-03 09:47:00,
2013-08-03 02:52:00,65.4,60.4,29.93,ESE,106,1.0,1.0,84,0.00,,,0.00,Wunderground v.1.15,2013-08-03 09:52:00,
2013-08-03 03:02:00,65.3,60.3,29.92,ESE,123,1.0,2.0,84,0.00,,,0.00,Wunderground v.1.15,2013-08-03 10:02:00,
2013-08-03 03:07:00,65.3,60.3,29.92,ESE,123,1.0,2.0,84,0.00,,,0.00,Wunderground v.1.15,2013-08-03 10:07:00,
2013-08-03 03:17:00,65.2,60.2,29.92,SSE,157,1.0,1.0,84,0.00,,,0.00,Wunderground v.1.15,2013-08-03 10:17:00,
2013-08-03 03:22:00,65.1,60.1,29.92,SE,124,1.0,1.0,84,0.00,,,0.00,Wunderground v.1.15,2013-08-03 10:22:00,
2013-08-03 03:27:00,65.1,60.1,29.92,ESE,106,1.0,1.0,84,0.00,,,0.00,Wunderground v.1.15,2013-08-03 10:27:00,
2013-08-03 03:37:00,65.0,60.0,29.92,ESE,106,1.0,1.0,84,0.00,,,0.00,Wunderground v.1.15,2013-08-03 10:37:00,
2013-08-03 03:47:00,65.0,60.0,29.92,ESE,106,0.0,1.0,84,0.00,,,0.00,Wunderground v.1.15,2013-08-03 10:47:00,
2013-08-03 03:52:00,64.9,59.9,29.92,SE,128,1.0,1.0,84,0.00,,,0.00,Wunderground v.1.15,2013-08-03 10:52:00,
2013-08-03 03:57:00,65.0,60.0,29.92,SE,128,1.0,1.0,84,0.00,,,0.00,Wunderground v.1.15,2013-08-03 10:57:00,
2013-08-03 04:07:00,65.0,60.0,29.92,South,184,2.0,2.0,84,0.00,,,0.00,Wunderground v.1.15,2013-08-03 11:07:00,
2013-08-03 04:12:00,65.0,60.0,29.92,South,184,2.0,2.0,84,0.00,,,0.00,Wunderground v.1.15,2013-08-03 11:12:00,
2013-08-03 04:22:00,64.9,59.9,29.92,South,184,1.0,1.0,84,0.00,,,0.00,Wunderground v.1.15,2013-08-03 11:22:00,
2013-08-03 04:32:00,65.0,60.0,29.92,South,178,1.0,1.0,84,0.00,,,0.00,Wunderground v.1.15,2013-08-03 11:32:00,
2013-08-03 04:37:00,65.0,60.0,29.92,South,178,0.0,1.0,84,0.00,,,0.00,Wunderground v.1.15,2013-08-03 11:37:00,
2013-08-03 04:42:00,65.0,60.0,29.93,SSE,159,1.0,1.0,84,0.00,,,0.00,Wunderground v.1.15,2013-08-03 11:42:00,
2013-08-03 04:52:00,64.9,59.9,29.93,ESE,105,1.0,1.0,84,0.00,,,0.00,Wunderground v.1.15,2013-08-03 11:52:00,
2013-08-03 04:57:00,64.9,59.9,29.93,ESE,105,0.0,1.0,84,0.00,,,0.00,Wunderground v.1.15,2013-08-03 11:57:00,
2013-08-03 05:07:00,64.8,59.9,29.93,ESE,119,1.0,1.0,84,0.00,,,0.00,Wunderground v.1.15,2013-08-03 12:07:00,
2013-08-03 05:17:00,64.7,60.1,29.93,SW,232,1.0,2.0,85,0.00,,,0.00,Wunderground v.1.15,2013-08-03 12:17:00,
2013-08-03 05:22:00,64.6,60.0,29.93,SW,232,1.0,1.0,85,0.00,,,0.00,Wunderground v.1.15,2013-08-03 12:22:00,
2013-08-03 05:32:00,64.5,59.9,29.93,West,277,1.0,1.0,85,0.00,,,0.00,Wunderground v.1.15,2013-08-03 12:32:00,
2013-08-03 05:37:00,64.6,60.0,29.93,West,277,0.0,1.0,85,0.00,,,0.00,Wunderground v.1.15,2013-08-03 12:37:00,
2013-08-03 05:42:00,64.6,60.0,29.93,West,277,0.0,2.0,85,0.00,,,0.00,Wunderground v.1.15,2013-08-03 12:42:00,
2013-08-03 05:47:00,64.7,60.1,29.93,West,277,1.0,2.0,85,0.00,,,0.00,Wunderground v.1.15,2013-08-03 12:47:00,
2013-08-03 05:52:00,64.7,60.1,29.93,West,260,2.0,2.0,85,0.00,,,0.00,Wunderground v.1.15,2013-08-03 12:52:00,
2013-08-03 06:02:00,64.6,59.7,29.93,West,274,1.0,1.0,84,0.00,,,0.00,Wunderground v.1.15,2013-08-03 13:02:00,
2013-08-03 06:07:00,64.6,60.0,29.93,West,274,1.0,1.0,85,0.00,,,0.00,Wunderground v.1.15,2013-08-03 13:07:00,
2013-08-03 06:12:00,64.6,60.0,29.93,West,274,1.0,1.0,85,0.00,,,0.00,Wunderground v.1.15,2013-08-03 13:12:00,
2013-08-03 06:22:00,64.7,60.1,29.94,West,274,1.0,1.0,85,0.00,,,0.00,Wunderground v.1.15,2013-08-03 13:22:00,
2013-08-03 06:27:00,64.7,60.1,29.94,North,355,1.0,2.0,85,0.00,,,0.00,Wunderground v.1.15,2013-08-03 13:27:00,
2013-08-03 06:37:00,64.7,60.1,29.94,North,355,2.0,2.0,85,0.00,,,0.00,Wunderground v.1.15,2013-08-03 13:37:00,
2013-08-03 06:42:00,64.7,60.1,29.94,NNE,19,2.0,2.0,85,0.00,,,0.00,Wunderground v.1.15,2013-08-03 13:42:00,
2013-08-03 06:47:00,64.8,59.9,29.94,NNE,17,1.0,2.0,84,0.00,,,0.00,Wunderground v.1.15,2013-08-03 13:47:00,
2013-08-03 06:52:00,64.8,59.9,29.95,NNE,17,1.0,1.0,84,0.00,,,0.00,Wunderground v.1.15,2013-08-03 13:52:00,
2013-08-03 06:57:00,64.9,59.9,29.94,NNE,17,1.0,1.0,84,0.00,,,0.00,Wunderground v.1.15,2013-08-03 13:57:00,
2013-08-03 07:07:00,65.0,60.0,29.95,NNE,17,1.0,1.0,84,0.00,,,0.00,Wunderground v.1.15,2013-08-03 14:07:00,
2013-08-03 07:12:00,65.0,59.7,29.95,NNE,17,0.0,1.0,83,0.00,,,0.00,Wunderground v.1.15,2013-08-03 14:12:00,
2013-08-03 07:17:00,65.1,59.8,29.95,NNE,17,0.0,1.0,83,0.00,,,0.00,Wunderground v.1.15,2013-08-03 14:17:00,
2013-08-03 07:22:00,65.2,60.2,29.95,NNE,17,0.0,0.0,84,0.00,,,0.00,Wunderground v.1.15,2013-08-03 14:22:00,
2013-08-03 07:27:00,65.3,60.0,29.95,SSE,163,1.0,1.0,83,0.00,,,0.00,Wunderground v.1.15,2013-08-03 14:27:00,
2013-08-03 07:32:00,65.4,60.1,29.95,SSE,163,1.0,1.0,83,0.00,,,0.00,Wunderground v.1.15,2013-08-03 14:32:00,
2013-08-03 07:37:00,65.5,60.2,29.96,SSE,163,0.0,1.0,83,0.00,,,0.00,Wunderground v.1.15,2013-08-03 14:37:00,
2013-08-03 07:42:00,65.6,60.0,29.96,SSE,163,0.0,0.0,82,0.00,,,0.00,Wunderground v.1.15,2013-08-03 14:42:00,
2013-08-03 07:52:00,65.8,60.2,29.96,SE,124,0.0,0.0,82,0.00,,,0.00,Wunderground v.1.15,2013-08-03 14:52:00,
2013-08-03 07:57:00,66.0,60.0,29.96,ESE,119,1.0,1.0,81,0.00,,,0.00,Wunderground v.1.15,2013-08-03 14:57:00,
2013-08-03 08:07:00,66.1,60.1,29.97,East,98,1.0,2.0,81,0.00,,,0.00,Wunderground v.1.15,2013-08-03 15:07:00,
2013-08-03 08:17:00,66.3,60.3,29.97,SSE,162,1.0,1.0,81,0.00,,,0.00,Wunderground v.1.15,2013-08-03 15:17:00,
2013-08-03 08:27:00,66.5,60.1,29.97,SSE,154,1.0,1.0,80,0.00,,,0.00,Wunderground v.1.15,2013-08-03 15:27:00,
2013-08-03 08:32:00,66.6,60.2,29.97,SSE,149,1.0,1.0,80,0.00,,,0.00,Wunderground v.1.15,2013-08-03 15:32:00,
2013-08-03 08:37:00,66.6,60.2,29.97,NE,56,2.0,2.0,80,0.00,,,0.00,Wunderground v.1.15,2013-08-03 15:37:00,
2013-08-03 08:42:00,66.6,60.2,29.97,ENE,63,2.0,3.0,80,0.00,,,0.00,Wunderground v.1.15,2013-08-03 15:42:00,
2013-08-03 08:52:00,66.8,60.1,29.97,SE,130,1.0,1.0,79,0.00,,,0.00,Wunderground v.1.15,2013-08-03 15:52:00,
2013-08-03 08:57:00,66.8,60.4,29.97,NNE,30,1.0,1.0,80,0.00,,,0.00,Wunderground v.1.15,2013-08-03 15:57:00,
2013-08-03 09:07:00,67.5,60.4,29.97,WNW,284,1.0,2.0,78,0.00,,,0.00,Wunderground v.1.15,2013-08-03 16:07:00,
2013-08-03 09:12:00,67.7,60.6,29.97,SW,232,1.0,3.0,78,0.00,,,0.00,Wunderground v.1.15,2013-08-03 16:12:00,
2013-08-03 09:22:00,67.9,60.4,29.97,SSW,195,2.0,2.0,77,0.00,,,0.00,Wunderground v.1.15,2013-08-03 16:22:00,
2013-08-03 09:27:00,67.7,60.6,29.97,SW,234,2.0,2.0,78,0.00,,,0.00,Wunderground v.1.15,2013-08-03 16:27:00,
2013-08-03 09:32:00,68.0,60.9,29.97,SE,135,1.0,3.0,78,0.00,,,0.00,Wunderground v.1.15,2013-08-03 16:32:00,
2013-08-03 09:37:00,68.5,61.0,29.97,SSE,156,1.0,3.0,77,0.00,,,0.00,Wunderground v.1.15,2013-08-03 16:37:00,
2013-08-03 09:42:00,69.0,61.1,29.97,NE,40,2.0,2.0,76,0.00,,,0.00,Wunderground v.1.15,2013-08-03 16:42:00,
2013-08-03 09:52:00,69.7,61.0,29.97,ESE,107,2.0,3.0,74,0.00,,,0.00,Wunderground v.1.15,2013-08-03 16:52:00,
2013-08-03 10:02:00,71.4,61.5,29.97,ESE,108,1.0,2.0,71,0.00,,,0.00,Wunderground v.1.15,2013-08-03 17:02:00,
2013-08-03 10:07:00,71.6,61.7,29.96,SSE,148,2.0,2.0,71,0.00,,,0.00,Wunderground v.1.15,2013-08-03 17:07:00,
2013-08-03 10:12:00,72.3,62.0,29.97,NE,41,1.0,3.0,70,0.00,,,0.00,Wunderground v.1.15,2013-08-03 17:12:00,
2013-08-03 10:22:00,71.5,61.2,29.97,SW,220,2.0,2.0,70,0.00,,,0.00,Wunderground v.1.15,2013-08-03 17:22:00,
2013-08-03 10:27:00,71.2,61.3,29.97,SW,227,2.0,3.0,71,0.00,,,0.00,Wunderground v.1.15,2013-08-03 17:27:00,
2013-08-03 10:32:00,71.3,61.4,29.97,SSW,195,3.0,3.0,71,0.00,,,0.00,Wunderground v.1.15,2013-08-03 17:32:00,
2013-08-03 10:37:00,72.1,61.8,29.97,SSE,166,3.0,3.0,70,0.00,,,0.00,Wunderground v.1.15,2013-08-03 17:37:00,
2013-08-03 10:47:00,72.9,61.7,29.97,SSW,195,2.0,7.0,68,0.00,,,0.00,Wunderground v.1.15,2013-08-03 17:47:00,
2013-08-03 10:52:00,73.0,61.8,29.97,SSW,196,2.0,6.0,68,0.00,,,0.00,Wunderground v.1.15,2013-08-03 17:52:00,
2013-08-03 10:57:00,73.3,61.7,29.96,SSW,207,3.0,6.0,67,0.00,,,0.00,Wunderground v.1.15,2013-08-03 17:57:00,
2013-08-03 11:02:00,72.6,61.4,29.96,SE,126,3.0,3.0,68,0.00,,,0.00,Wunderground v.1.15,2013-08-03 18:02:00,
2013-08-03 11:12:00,73.4,61.8,29.96,South,186,3.0,4.0,67,0.00,,,0.00,Wunderground v.1.15,2013-08-03 18:12:00,
2013-08-03 11:22:00,73.9,61.8,29.96,SW,225,4.0,4.0,66,0.00,,,0.00,Wunderground v.1.15,2013-08-03 18:22:00,
2013-08-03 11:27:00,74.4,61.9,29.96,South,186,3.0,4.0,65,0.00,,,0.00,Wunderground v.1.15,2013-08-03 18:27:00,
2013-08-03 11:32:00,74.5,62.0,29.96,SW,230,2.0,4.0,65,0.00,,,0.00,Wunderground v.1.15,2013-08-03 18:32:00,
2013-08-03 11:42:00,74.6,62.1,29.96,SSW,205,4.0,6.0,65,0.00,,,0.00,Wunderground v.1.15,2013-08-03 18:42:00,
2013-08-03 11:47:00,74.3,61.8,29.95,SW,219,4.0,6.0,65,0.00,,,0.00,Wunderground v.1.15,2013-08-03 18:47:00,
2013-08-03 11:57:00,75.0,62.0,29.95,SSE,163,5.0,5.0,64,0.00,,,0.00,Wunderground v.1.15,2013-08-03 18:57:00,
2013-08-03 12:02:00,75.2,62.2,29.95,West,263,3.0,3.0,64,0.00,,,0.00,Wunderground v.1.15,2013-08-03 19:02:00,
2013-08-03 12:12:00,75.9,62.4,29.95,SW,215,4.0,4.0,63,0.00,,,0.00,Wunderground v.1.15,2013-08-03 19:12:00,
2013-08-03 12:22:00,76.2,61.8,29.95,South,169,4.0,4.0,61,0.00,,,0.00,Wunderground v.1.15,2013-08-03 19:22:00,
2013-08-03 12:27:00,76.7,62.2,29.94,SSW,197,2.0,4.0,61,0.00,,,0.00,Wunderground v.1.15,2013-08-03 19:27:00,
2013-08-03 12:32:00,77.6,62.1,29.94,SW,228,2.0,3.0,59,0.00,,,0.00,Wunderground v.1.15,2013-08-03 19:32:00,
2013-08-03 12:37:00,78.3,62.8,29.94,SSW,212,3.0,4.0,59,0.00,,,0.00,Wunderground v.1.15,2013-08-03 19:37:00,
2013-08-03 12:47:00,78.0,62.0,29.94,NNW,336,5.0,5.0,58,0.00,,,0.00,Wunderground v.1.15,2013-08-03 19:47:00,
2013-08-03 12:52:00,78.2,62.2,29.94,SW,224,3.0,6.0,58,0.00,,,0.00,Wunderground v.1.15,2013-08-03 19:52:00,
2013-08-03 12:57:00,78.6,62.1,29.94,South,173,3.0,6.0,57,0.00,,,0.00,Wunderground v.1.15,2013-08-03 19:57:00,
2013-08-03 13:07:00,78.8,62.3,29.94,SSW,203,4.0,6.0,57,0.00,,,0.00,Wunderground v.1.15,2013-08-03 20:07:00,
2013-08-03 13:12:00,78.8,61.8,29.93,SSW,192,5.0,5.0,56,0.00,,,0.00,Wunderground v.1.15,2013-08-03 20:12:00,
2013-08-03 13:22:00,79.9,62.8,29.93,West,261,5.0,5.0,56,0.00,,,0.00,Wunderground v.1.15,2013-08-03 20:22:00,
2013-08-03 13:27:00,80.9,62.7,29.93,SSW,211,4.0,5.0,54,0.00,,,0.00,Wunderground v.1.15,2013-08-03 20:27:00,
2013-08-03 13:37:00,79.8,62.2,29.93,SE,124,4.0,7.0,55,0.00,,,0.00,Wunderground v.1.15,2013-08-03 20:37:00,
2013-08-03 13:42:00,80.1,62.0,29.92,SSW,199,4.0,4.0,54,0.00,,,0.00,Wunderground v.1.15,2013-08-03 20:42:00,
2013-08-03 13:52:00,80.7,62.5,29.92,SSW,209,5.0,5.0,54,0.00,,,0.00,Wunderground v.1.15,2013-08-03 20:52:00,
2013-08-03 14:02:00,80.8,62.6,29.92,SSW,193,5.0,5.0,54,0.00,,,0.00,Wunderground v.1.15,2013-08-03 21:02:00,
2013-08-03 14:07:00,80.8,62.6,29.92,West,259,6.0,6.0,54,0.00,,,0.00,Wunderground v.1.15,2013-08-03 21:07:00,
2013-08-03 14:12:00,81.0,63.3,29.92,South,181,6.0,6.0,55,0.00,,,0.00,Wunderground v.1.15,2013-08-03 21:12:00,
2013-08-03 14:22:00,80.9,63.2,29.92,SW,221,6.0,6.0,55,0.00,,,0.00,Wunderground v.1.15,2013-08-03 21:22:00,
2013-08-03 14:27:00,80.3,62.7,29.92,SSW,209,7.0,7.0,55,0.00,,,0.00,Wunderground v.1.15,2013-08-03 21:27:00,
2013-08-03 14:32:00,79.6,63.0,29.92,South,186,6.0,6.0,57,0.00,,,0.00,Wunderground v.1.15,2013-08-03 21:32:00,
2013-08-03 14:37:00,80.0,63.4,29.92,SSW,195,6.0,6.0,57,0.00,,,0.00,Wunderground v.1.15,2013-08-03 21:37:00,
2013-08-03 14:42:00,79.7,63.1,29.92,WSW,237,6.0,12.0,57,0.00,,,0.00,Wunderground v.1.15,2013-08-03 21:42:00,
2013-08-03 14:52:00,79.4,63.3,29.91,South,180,6.0,6.0,58,0.00,,,0.00,Wunderground v.1.15,2013-08-03 21:52:00,
2013-08-03 14:57:00,79.7,63.6,29.91,WSW,238,6.0,9.0,58,0.00,,,0.00,Wunderground v.1.15,2013-08-03 21:57:00,
2013-08-03 15:07:00,79.9,63.8,29.91,SSW,196,5.0,6.0,58,0.00,,,0.00,Wunderground v.1.15,2013-08-03 22:07:00,
2013-08-03 15:12:00,79.7,63.6,29.91,SW,234,5.0,5.0,58,0.00,,,0.00,Wunderground v.1.15,2013-08-03 22:12:00,
2013-08-03 15:22:00,79.5,63.4,29.91,South,186,6.0,6.0,58,0.00,,,0.00,Wunderground v.1.15,2013-08-03 22:22:00,
2013-08-03 15:27:00,79.5,63.4,29.90,SW,234,6.0,6.0,58,0.00,,,0.00,Wunderground v.1.15,2013-08-03 22:27:00,
2013-08-03 15:32:00,79.9,63.8,29.91,SSW,193,5.0,5.0,58,0.00,,,0.00,Wunderground v.1.15,2013-08-03 22:32:00,
2013-08-03 15:42:00,80.4,63.8,29.90,South,171,6.0,10.0,57,0.00,,,0.00,Wunderground v.1.15,2013-08-03 22:42:00,
2013-08-03 15:52:00,79.9,63.3,29.90,SSW,193,6.0,6.0,57,0.00,,,0.00,Wunderground v.1.15,2013-08-03 22:52:00,
2013-08-03 15:57:00,79.9,63.3,29.90,South,190,6.0,7.0,57,0.00,,,0.00,Wunderground v.1.15,2013-08-03 22:57:00,
2013-08-03 16:07:00,80.0,63.4,29.90,SSE,155,5.0,7.0,57,0.00,,,0.00,Wunderground v.1.15,2013-08-03 23:07:00,
2013-08-03 16:17:00,79.8,63.2,29.89,SSW,211,6.0,6.0,57,0.00,,,0.00,Wunderground v.1.15,2013-08-03 23:17:00,
2013-08-03 16:22:00,80.1,63.5,29.89,South,176,5.0,5.0,57,0.00,,,0.00,Wunderground v.1.15,2013-08-03 23:22:00,
2013-08-03 16:32:00,80.8,63.6,29.89,SSW,206,5.0,5.0,56,0.00,,,0.00,Wunderground v.1.15,2013-08-03 23:32:00,
2013-08-03 16:37:00,81.1,63.9,29.89,SSE,164,4.0,7.0,56,0.00,,,0.00,Wunderground v.1.15,2013-08-03 23:37:00,
2013-08-03 16:47:00,81.3,63.6,29.89,SSE,148,5.0,5.0,55,0.00,,,0.00,Wunderground v.1.15,2013-08-03 23:47:00,
2013-08-03 16:52:00,81.8,64.1,29.88,SSW,201,4.0,6.0,55,0.00,,,0.00,Wunderground v.1.15,2013-08-03 23:52:00,
2013-08-03 17:02:00,81.5,63.8,29.88,SSW,208,6.0,9.0,55,0.00,,,0.00,Wunderground v.1.15,2013-08-04 00:02:00,
2013-08-03 17:07:00,81.4,63.7,29.89,SSW,199,6.0,9.0,55,0.00,,,0.00,Wunderground v.1.15,2013-08-04 00:07:00,
2013-08-03 17:17:00,81.0,63.3,29.89,South,184,6.0,9.0,55,0.00,,,0.00,Wunderground v.1.15,2013-08-04 00:17:00,
2013-08-03 17:27:00,80.3,63.2,29.89,SSE,162,5.0,7.0,56,0.00,,,0.00,Wunderground v.1.15,2013-08-04 00:27:00,
2013-08-03 17:32:00,79.8,63.2,29.89,SSW,209,6.0,6.0,57,0.00,,,0.00,Wunderground v.1.15,2013-08-04 00:32:00,
2013-08-03 17:37:00,79.5,63.4,29.88,ESE,110,5.0,6.0,58,0.00,,,0.00,Wunderground v.1.15,2013-08-04 00:37:00,
2013-08-03 17:47:00,79.7,63.1,29.89,WSW,242,5.0,8.0,57,0.00,,,0.00,Wunderground v.1.15,2013-08-04 00:47:00,
2013-08-03 17:52:00,79.3,63.2,29.89,SW,221,5.0,5.0,58,0.00,,,0.00,Wunderground v.1.15,2013-08-04 00:52:00,
2013-08-03 17:57:00,79.0,63.0,29.89,WSW,240,5.0,8.0,58,0.00,,,0.00,Wunderground v.1.15,2013-08-04 00:57:00,
2013-08-03 18:02:00,78.7,63.6,29.89,West,277,5.0,5.0,60,0.00,,,0.00,Wunderground v.1.15,2013-08-04 01:02:00,
2013-08-03 18:12:00,78.3,63.3,29.89,WSW,243,5.0,10.0,60,0.00,,,0.00,Wunderground v.1.15,2013-08-04 01:12:00,
2013-08-03 18:22:00,77.6,63.1,29.89,NW,309,4.0,4.0,61,0.00,,,0.00,Wunderground v.1.15,2013-08-04 01:22:00,
2013-08-03 18:27:00,77.5,63.0,29.89,WNW,300,3.0,4.0,61,0.00,,,0.00,Wunderground v.1.15,2013-08-04 01:27:00,
2013-08-03 18:37:00,76.3,62.8,29.89,WSW,245,4.0,5.0,63,0.00,,,0.00,Wunderground v.1.15,2013-08-04 01:37:00,
2013-08-03 18:42:00,75.5,62.9,29.89,WSW,242,5.0,5.0,65,0.00,,,0.00,Wunderground v.1.15,2013-08-04 01:42:00,
2013-08-03 18:52:00,74.8,62.7,29.90,SW,227,4.0,5.0,66,0.00,,,0.00,Wunderground v.1.15,2013-08-04 01:52:00,
2013-08-03 18:57:00,74.1,62.4,29.90,West,275,4.0,5.0,67,0.00,,,0.00,Wunderground v.1.15,2013-08-04 01:57:00,
2013-08-03 19:07:00,73.5,62.3,29.90,West,265,4.0,6.0,68,0.00,,,0.00,Wunderground v.1.15,2013-08-04 02:07:00,
2013-08-03 19:12:00,72.9,62.1,29.90,WSW,241,4.0,4.0,69,0.00,,,0.00,Wunderground v.1.15,2013-08-04 02:12:00,
2013-08-03 19:22:00,71.9,61.6,29.90,WNW,284,4.0,4.0,70,0.00,,,0.00,Wunderground v.1.15,2013-08-04 02:22:00,
2013-08-03 19:27:00,71.6,61.3,29.90,West,259,3.0,4.0,70,0.00,,,0.00,Wunderground v.1.15,2013-08-04 02:27:00,
2013-08-03 19:32:00,71.1,61.2,29.90,WSW,237,3.0,3.0,71,0.00,,,0.00,Wunderground v.1.15,2013-08-04 02:32:00,
2013-08-03 19:37:00,70.5,61.0,29.91,WNW,285,3.0,3.0,72,0.00,,,0.00,Wunderground v.1.15,2013-08-04 02:37:00,
2013-08-03 19:42:00,70.1,61.0,29.91,West,270,3.0,4.0,73,0.00,,,0.00,Wunderground v.1.15,2013-08-04 02:42:00,
2013-08-03 19:52:00,69.3,61.0,29.91,WNW,297,3.0,3.0,75,0.00,,,0.00,Wunderground v.1.15,2013-08-04 02:52:00,
2013-08-03 19:57:00,69.0,60.7,29.91,WNW,285,3.0,3.0,75,0.00,,,0.00,Wunderground v.1.15,2013-08-04 02:57:00,
2013-08-03 20:07:00,68.4,60.5,29.91,NNW,327,3.0,3.0,76,0.00,,,0.00,Wunderground v.1.15,2013-08-04 03:07:00,
2013-08-03 20:12:00,68.1,60.2,29.91,WNW,294,3.0,3.0,76,0.00,,,0.00,Wunderground v.1.15,2013-08-04 03:12:00,
2013-08-03 20:22:00,67.5,60.0,29.92,NW,309,3.0,3.0,77,0.00,,,0.00,Wunderground v.1.15,2013-08-04 03:22:00,
2013-08-03 20:32:00,67.2,60.1,29.92,SW,227,2.0,2.0,78,0.00,,,0.00,Wunderground v.1.15,2013-08-04 03:32:00,
2013-08-03 20:37:00,67.1,60.0,29.92,WNW,283,3.0,3.0,78,0.00,,,0.00,Wunderground v.1.15,2013-08-04 03:37:00,
2013-08-03 20:42:00,66.9,60.2,29.92,WSW,250,2.0,2.0,79,0.00,,,0.00,Wunderground v.1.15,2013-08-04 03:42:00,
2013-08-03 20:52:00,66.5,60.1,29.93,West,261,2.0,4.0,80,0.00,,,0.00,Wunderground v.1.15,2013-08-04 03:52:00,
2013-08-03 20:57:00,66.2,59.8,29.93,WNW,291,3.0,4.0,80,0.00,,,0.00,Wunderground v.1.15,2013-08-04 03:57:00,
2013-08-03 21:02:00,65.8,59.8,29.93,West,273,3.0,3.0,81,0.00,,,0.00,Wunderground v.1.15,2013-08-04 04:02:00,
2013-08-03 21:07:00,65.6,60.0,29.93,SW,226,3.0,3.0,82,0.00,,,0.00,Wunderground v.1.15,2013-08-04 04:07:00,
2013-08-03 21:12:00,65.6,60.0,29.94,West,278,2.0,3.0,82,0.00,,,0.00,Wunderground v.1.15,2013-08-04 04:12:00,
2013-08-03 21:17:00,65.4,59.8,29.94,NW,306,2.0,3.0,82,0.00,,,0.00,Wunderground v.1.15,2013-08-04 04:17:00,
2013-08-03 21:22:00,65.3,59.7,29.94,WNW,299,2.0,2.0,82,0.00,,,0.00,Wunderground v.1.15,2013-08-04 04:22:00,
2013-08-03 21:27:00,65.2,59.9,29.94,West,277,3.0,3.0,83,0.00,,,0.00,Wunderground v.1.15,2013-08-04 04:27:00,
2013-08-03 21:37:00,64.9,59.6,29.94,WNW,296,2.0,3.0,83,0.00,,,0.00,Wunderground v.1.15,2013-08-04 04:37:00,
2013-08-03 21:42:00,64.8,59.5,29.94,WNW,288,2.0,2.0,83,0.00,,,0.00,Wunderground v.1.15,2013-08-04 04:42:00,
2013-08-03 21:47:00,64.8,59.5,29.94,WNW,287,2.0,2.0,83,0.00,,,0.00,Wunderground v.1.15,2013-08-04 04:47:00,
2013-08-03 21:52:00,64.7,59.8,29.94,WNW,284,2.0,2.0,84,0.00,,,0.00,Wunderground v.1.15,2013-08-04 04:52:00,
2013-08-03 21:57:00,64.7,59.8,29.94,WNW,284,2.0,2.0,84,0.00,,,0.00,Wunderground v.1.15,2013-08-04 04:57:00,
2013-08-03 22:07:00,64.6,59.7,29.94,WNW,289,1.0,2.0,84,0.00,,,0.00,Wunderground v.1.15,2013-08-04 05:07:00,
2013-08-03 22:17:00,64.4,59.5,29.95,WNW,289,1.0,1.0,84,0.00,,,0.00,Wunderground v.1.15,2013-08-04 05:17:00,
2013-08-03 22:22:00,64.4,59.5,29.94,WNW,289,1.0,2.0,84,0.00,,,0.00,Wunderground v.1.15,2013-08-04 05:22:00,
2013-08-03 22:27:00,64.2,59.3,29.95,WNW,288,2.0,2.0,84,0.00,,,0.00,Wunderground v.1.15,2013-08-04 05:27:00,
2013-08-03 22:32:00,64.1,59.5,29.95,West,275,2.0,3.0,85,0.00,,,0.00,Wunderground v.1.15,2013-08-04 05:32:00,
2013-08-03 22:42:00,64.0,59.4,29.95,WSW,247,2.0,2.0,85,0.00,,,0.00,Wunderground v.1.15,2013-08-04 05:42:00,
2013-08-03 22:47:00,63.9,59.3,29.95,WNW,302,2.0,2.0,85,0.00,,,0.00,Wunderground v.1.15,2013-08-04 05:47:00,
2013-08-03 22:57:00,63.8,59.2,29.95,WNW,302,1.0,3.0,85,0.00,,,0.00,Wunderground v.1.15,2013-08-04 05:57:00,
2013-08-03 23:02:00,63.8,59.2,29.95,West,274,1.0,2.0,85,0.00,,,0.00,Wunderground v.1.15,2013-08-04 06:02:00,
2013-08-03 23:07:00,63.8,59.2,29.95,West,274,1.0,2.0,85,0.00,,,0.00,Wunderground v.1.15,2013-08-04 06:07:00,
2013-08-03 23:12:00,63.7,59.1,29.95,West,274,1.0,1.0,85,0.00,,,0.00,Wunderground v.1.15,2013-08-04 06:12:00,
2013-08-03 23:22:00,63.6,59.3,29.95,West,274,1.0,2.0,86,0.00,,,0.00,Wunderground v.1.15,2013-08-04 06:22:00,
2013-08-03 23:27:00,63.6,59.3,29.95,West,274,1.0,2.0,86,0.00,,,0.00,Wunderground v.1.15,2013-08-04 06:27:00,
2013-08-03 23:37:00,63.6,59.3,29.95,West,274,1.0,2.0,86,0.00,,,0.00,Wunderground v.1.15,2013-08-04 06:37:00,
2013-08-03 23:47:00,63.5,59.2,29.95,West,274,1.0,1.0,86,0.00,,,0.00,Wunderground v.1.15,2013-08-04 06:47:00,
2013-08-03 23:52:00,63.4,59.1,29.95,West,274,0.0,1.0,86,0.00,,,0.00,Wunderground v.1.15,2013-08-04 06:52:00,
2013-08-03 23:57:00,63.4,59.1,29.95,West,274,0.0,1.0,86,0.00,,,0.00,Wunderground v.1.15,2013-08-04 06:57:00,